| time (UTC) | temp F | wind direction | speed MPH | gust MPH | rain 1hr in | rain 24hr in | rain mn in | humidity % | barometer mb |
| 20260831172514 | 95 | 247 | 6.0 | 11.0 | 0.00 | 0.00 | 0.00 | 49 | 1001.0 |
| 20260831171515 | 95 | 259 | 4.0 | 4.0 | 0.00 | 0.00 | 0.00 | 51 | 1001.1 |
| 20260831171015 | 0 | 0.0 | 0.0 | 0.00 | 0.00 | 0.00 | 1001.1 | ||
| 20260831170514 | 0 | 0.0 | 0.0 | 0.00 | 0.00 | 0.00 | 1001.3 | ||
| 20260831170013 | 0 | 0.0 | 0.0 | 0.00 | 0.00 | 0.00 | 1001.4 | ||
| 20260831165512 | 0 | 255 | 8.0 | 9.0 | 0.00 | 0.00 | 0.00 | 1001.5 | |
| 20260831165011 | 94 | 255 | 8.0 | 13.0 | 0.00 | 0.00 | 0.00 | 51 | 1001.5 |
| 20260831164512 | 94 | 254 | 8.0 | 13.0 | 0.00 | 0.00 | 0.00 | 51 | 1001.5 |
| 20260831164009 | 94 | 264 | 4.0 | 9.0 | 0.00 | 0.00 | 0.00 | 52 | 1001.7 |
| 20260831163510 | 93 | 278 | 3.0 | 11.0 | 0.00 | 0.00 | 0.00 | 53 | 1001.6 |
| 20260831163010 | 93 | 272 | 7.0 | 11.0 | 0.00 | 0.00 | 0.00 | 53 | 1001.7 |
| 20260831162509 | 93 | 265 | 2.0 | 4.0 | 0.00 | 0.00 | 0.00 | 53 | 1001.7 |
| 20260831162242 | 0 | 0.0 | 0.0 | 0.00 | 0.00 | 0.00 | 1001.7 | ||
| 20260831161509 | 0 | 0.0 | 0.0 | 0.00 | 0.00 | 0.00 | 1001.7 | ||
| 20260831161008 | 0 | 0.0 | 0.0 | 0.00 | 0.00 | 0.00 | 1001.7 | ||
| 20260831160006 | 93 | 274 | 3.0 | 12.0 | 0.00 | 0.00 | 0.00 | 53 | 1001.8 |
| 20260831155505 | 92 | 264 | 5.0 | 14.0 | 0.00 | 0.00 | 0.00 | 54 | 1001.9 |
| 20260831155005 | 92 | 275 | 7.0 | 14.0 | 0.00 | 0.00 | 0.00 | 53 | 1001.7 |
| 20260831154504 | 92 | 250 | 4.0 | 10.0 | 0.00 | 0.00 | 0.00 | 55 | 1001.7 |
| 20260831154005 | 91 | 224 | 4.0 | 10.0 | 0.00 | 0.00 | 0.00 | 56 | 1001.7 |
| 20260831153505 | 90 | 250 | 4.0 | 7.0 | 0.00 | 0.00 | 0.00 | 59 | 1001.7 |
| 20260831153004 | 89 | 200 | 4.0 | 6.0 | 0.00 | 0.00 | 0.00 | 60 | 1001.8 |
| 20260831152505 | 88 | 245 | 1.0 | 5.0 | 0.00 | 0.00 | 0.00 | 62 | 1001.8 |
| 20260831151505 | 86 | 234 | 2.0 | 3.0 | 0.00 | 0.00 | 0.00 | 65 | 1001.7 |
| 20260831151005 | 0 | 0.0 | 0.0 | 0.00 | 0.00 | 0.00 | 1001.8 | ||
| 20260831150503 | 0 | 0.0 | 0.0 | 0.00 | 0.00 | 0.00 | 1001.8 | ||
| 20260831150002 | 0 | 0.0 | 0.0 | 0.00 | 0.00 | 0.00 | 1001.8 | ||
| 20260831145501 | 0 | 0.0 | 0.0 | 0.00 | 0.00 | 0.00 | 1001.8 | ||
| 20260831145000 | 0 | 0.0 | 0.0 | 0.00 | 0.00 | 0.00 | 1001.8 | ||
| 20260831144458 | 0 | 0.0 | 0.0 | 0.00 | 0.00 | 0.00 | 1001.8 | ||
| 20260831143958 | 0 | 0.0 | 0.0 | 0.00 | 0.00 | 0.00 | 1001.9 | ||
| 20260831143456 | 0 | 0.0 | 0.0 | 0.00 | 0.00 | 0.00 | 1001.9 | ||
| 20260831142956 | 0 | 0.0 | 0.0 | 0.00 | 0.00 | 0.00 | 1001.8 | ||
| 20260831142454 | 0 | 0.0 | 0.0 | 0.00 | 0.00 | 0.00 | 1001.9 | ||
| 20260831141953 | 75 | 188 | 1.0 | 3.0 | 0.00 | 0.00 | 0.00 | 79 | 1001.9 |
| 20260831141722 | 75 | 188 | 1.0 | 3.0 | 0.00 | 0.00 | 0.00 | 79 | 1002.0 |
| 20260831140950 | 75 | 188 | 1.0 | 2.0 | 0.00 | 0.00 | 0.00 | 79 | 1001.9 |
| 20260831140451 | 74 | 188 | 1.0 | 3.0 | 0.00 | 0.00 | 0.00 | 81 | 1001.9 |
| 20260831135951 | 73 | 186 | 2.0 | 3.0 | 0.00 | 0.00 | 0.00 | 82 | 1001.9 |
| 20260831135722 | 72 | 186 | 0.0 | 0.0 | 0.00 | 0.00 | 0.00 | 83 | 1001.9 |
| 20260831134951 | 72 | 186 | 0.0 | 0.0 | 0.00 | 0.00 | 0.00 | 84 | 1001.9 |
| 20260831134450 | 0 | 0.0 | 0.0 | 0.00 | 0.00 | 0.00 | 1002.0 | ||
| 20260831133948 | 0 | 186 | 0.0 | 0.0 | 0.00 | 0.00 | 0.00 | 1002.0 | |
| 20260831133448 | 69 | 186 | 0.0 | 0.0 | 0.00 | 0.00 | 0.00 | 88 | 1002.0 |
| 20260831132948 | 69 | 186 | 0.0 | 0.0 | 0.00 | 0.00 | 0.00 | 88 | 1001.9 |
| 20260831132718 | 68 | 186 | 0.0 | 0.0 | 0.00 | 0.00 | 0.00 | 89 | 1002.0 |
| 20260831132219 | 68 | 186 | 0.0 | 0.0 | 0.00 | 0.00 | 0.00 | 90 | 1002.0 |
| 20260831131447 | 67 | 186 | 0.0 | 0.0 | 0.00 | 0.00 | 0.00 | 90 | 1001.9 |
| 20260831130946 | 67 | 186 | 0.0 | 0.0 | 0.00 | 0.00 | 0.00 | 92 | 1001.9 |
| 20260831130451 | 66 | 186 | 0.0 | 0.0 | 0.00 | 0.00 | 0.00 | 93 | 1001.9 |
| 20260831125947 | 66 | 186 | 0.0 | 0.0 | 0.00 | 0.00 | 0.00 | 94 | 1001.9 |
| 20260831125446 | 65 | 186 | 0.0 | 0.0 | 0.00 | 0.00 | 0.00 | 94 | 1001.9 |
| 20260831124946 | 65 | 186 | 0.0 | 0.0 | 0.00 | 0.00 | 0.00 | 94 | 1001.9 |
| 20260831124446 | 65 | 186 | 0.0 | 0.0 | 0.00 | 0.00 | 0.00 | 94 | 1001.7 |
| 20260831123946 | 64 | 186 | 0.0 | 0.0 | 0.00 | 0.00 | 0.00 | 94 | 1001.7 |
| 20260831123446 | 0 | 0.0 | 0.0 | 0.00 | 0.00 | 0.00 | 1001.7 | ||
| 20260831123217 | 0 | 0.0 | 0.0 | 0.00 | 0.00 | 0.00 | 1001.6 | ||
| 20260831122444 | 0 | 0.0 | 0.0 | 0.00 | 0.00 | 0.00 | 1001.6 | ||
| 20260831121943 | 0 | 0.0 | 0.0 | 0.00 | 0.00 | 0.00 | 1001.6 | ||
| 20260831121712 | 0 | 0.0 | 0.0 | 0.00 | 0.00 | 0.00 | 1001.4 | ||
| 20260831120941 | 0 | 0.0 | 0.0 | 0.00 | 0.00 | 0.00 | 1001.3 | ||
| 20260831120439 | 0 | 0.0 | 0.0 | 0.00 | 0.00 | 0.00 | 1001.2 | ||
| 20260831115938 | 0 | 0.0 | 0.0 | 0.00 | 0.00 | 0.00 | 1001.1 | ||
| 20260831115437 | 0 | 0.0 | 0.0 | 0.00 | 0.00 | 0.00 | 1001.2 | ||
| 20260831114936 | 63 | 186 | 0.0 | 0.0 | 0.00 | 0.00 | 0.00 | 92 | 1001.3 |
| 20260831114435 | 63 | 186 | 0.0 | 0.0 | 0.00 | 0.00 | 0.00 | 92 | 1001.3 |
| 20260831113935 | 63 | 186 | 0.0 | 0.0 | 0.00 | 0.00 | 0.00 | 92 | 1001.2 |
| 20260831113434 | 63 | 186 | 0.0 | 0.0 | 0.00 | 0.00 | 0.00 | 92 | 1001.2 |
| 20260831112932 | 63 | 186 | 0.0 | 0.0 | 0.00 | 0.00 | 0.00 | 92 | 1001.2 |
| 20260831112704 | 63 | 186 | 0.0 | 0.0 | 0.00 | 0.00 | 0.00 | 92 | 1001.2 |
| 20260831112205 | 0 | 0.0 | 0.0 | 0.00 | 0.00 | 0.00 | 1001.1 | ||
| 20260831111433 | 0 | 186 | 0.0 | 0.0 | 0.00 | 0.00 | 0.00 | 1001.1 | |
| 20260831110932 | 64 | 186 | 0.0 | 0.0 | 0.00 | 0.00 | 0.00 | 92 | 1001.0 |
| 20260831110431 | 64 | 186 | 0.0 | 0.0 | 0.00 | 0.00 | 0.00 | 92 | 1001.1 |
| 20260831105931 | 0 | 0.0 | 0.0 | 0.00 | 0.00 | 0.00 | 1001.0 | ||
| 20260831105434 | 0 | 0.0 | 0.0 | 0.00 | 0.00 | 0.00 | 1001.0 | ||
| 20260831104929 | 0 | 0.0 | 0.0 | 0.00 | 0.00 | 0.00 | 1001.0 | ||
| 20260831104659 | 0 | 0.0 | 0.0 | 0.00 | 0.00 | 0.00 | 1000.9 | ||
| 20260831103657 | 0 | 0.0 | 0.0 | 0.00 | 0.00 | 0.00 | 1000.9 | ||
| 20260831102924 | 0 | 0.0 | 0.0 | 0.00 | 0.00 | 0.00 | 1000.9 | ||
| 20260831102424 | 0 | 0.0 | 0.0 | 0.00 | 0.00 | 0.00 | 1000.8 | ||
| 20260831101922 | 0 | 0.0 | 0.0 | 0.00 | 0.00 | 0.00 | 1000.9 | ||
| 20260831101421 | 0 | 0.0 | 0.0 | 0.00 | 0.00 | 0.00 | 1000.9 | ||
| 20260831100921 | 0 | 0.0 | 0.0 | 0.00 | 0.00 | 0.00 | 1001.0 | ||
| 20260831100649 | 0 | 0.0 | 0.0 | 0.00 | 0.00 | 0.00 | 1000.9 | ||
| 20260831095918 | 0 | 0.0 | 0.0 | 0.00 | 0.00 | 0.00 | 1001.1 | ||
| 20260831095417 | 0 | 0.0 | 0.0 | 0.00 | 0.00 | 0.00 | 1000.9 | ||
| 20260831094915 | 0 | 0.0 | 0.0 | 0.00 | 0.00 | 0.00 | 1000.8 | ||
| 20260831094415 | 0 | 0.0 | 0.0 | 0.00 | 0.00 | 0.00 | 1000.8 | ||
| 20260831093913 | 0 | 0.0 | 0.0 | 0.00 | 0.00 | 0.00 | 1000.8 | ||
| 20260831093412 | 0 | 0.0 | 0.0 | 0.00 | 0.00 | 0.00 | 1000.8 | ||
| 20260831093143 | 0 | 0.0 | 0.0 | 0.00 | 0.00 | 0.00 | 1000.8 | ||
| 20260831092410 | 0 | 0.0 | 0.0 | 0.00 | 0.00 | 0.00 | 1000.9 | ||
| 20260831091908 | 0 | 0.0 | 0.0 | 0.00 | 0.00 | 0.00 | 1000.9 | ||
| 20260831091407 | 0 | 0.0 | 0.0 | 0.00 | 0.00 | 0.00 | 1000.8 | ||
| 20260831090906 | 0 | 0.0 | 0.0 | 0.00 | 0.00 | 0.00 | 1000.7 | ||
| 20260831090405 | 0 | 0.0 | 0.0 | 0.00 | 0.00 | 0.00 | 1000.7 | ||
| 20260831085903 | 0 | 0.0 | 0.0 | 0.00 | 0.00 | 0.00 | 1000.7 | ||
| 20260831085403 | 0 | 0.0 | 0.0 | 0.00 | 0.00 | 0.00 | 1000.7 | ||
| 20260831084901 | 0 | 0.0 | 0.0 | 0.00 | 0.00 | 0.00 | 1000.6 | ||
| 20260831084401 | 0 | 0.0 | 0.0 | 0.00 | 0.00 | 0.00 | 1000.5 | ||
| 20260831083859 | 0 | 0.0 | 0.0 | 0.00 | 0.00 | 0.00 | 1000.5 | ||
| 20260831083358 | 0 | 0.0 | 0.0 | 0.00 | 0.00 | 0.00 | 1000.4 | ||
| 20260831083129 | 0 | 0.0 | 0.0 | 0.00 | 0.00 | 0.00 | 1000.4 | ||
| 20260831082355 | 0 | 0.0 | 0.0 | 0.00 | 0.00 | 0.00 | 1000.4 | ||
| 20260831081855 | 0 | 0.0 | 0.0 | 0.00 | 0.00 | 0.00 | 1000.2 | ||
| 20260831081353 | 0 | 0.0 | 0.0 | 0.00 | 0.00 | 0.00 | 1000.3 | ||
| 20260831080853 | 0 | 0.0 | 0.0 | 0.00 | 0.00 | 0.00 | 1000.3 | ||
| 20260831080351 | 0 | 0.0 | 0.0 | 0.00 | 0.00 | 0.00 | 1000.3 | ||
| 20260831075850 | 0 | 0.0 | 0.0 | 0.00 | 0.00 | 0.00 | 1000.2 | ||
| 20260831075349 | 0 | 0.0 | 0.0 | 0.00 | 0.00 | 0.00 | 1000.2 | ||
| 20260831074848 | 0 | 0.0 | 0.0 | 0.00 | 0.00 | 0.00 | 1000.2 | ||
| 20260831074346 | 0 | 0.0 | 0.0 | 0.00 | 0.00 | 0.00 | 1000.2 | ||
| 20260831073845 | 0 | 0.0 | 0.0 | 0.00 | 0.00 | 0.00 | 1000.2 | ||
| 20260831073615 | 0 | 0.0 | 0.0 | 0.00 | 0.00 | 0.00 | 1000.3 | ||
| 20260831072843 | 0 | 0.0 | 0.0 | 0.00 | 0.00 | 0.00 | 1000.2 | ||
| 20260831072342 | 0 | 0.0 | 0.0 | 0.00 | 0.00 | 0.00 | 1000.3 | ||
| 20260831071841 | 0 | 0.0 | 0.0 | 0.00 | 0.00 | 0.00 | 1000.3 | ||
| 20260831071340 | 0 | 0.0 | 0.0 | 0.00 | 0.00 | 0.00 | 1000.4 | ||
| 20260831070608 | 0 | 0.0 | 0.0 | 0.00 | 0.00 | 0.00 | 1000.4 | ||
| 20260831065836 | 0 | 0.0 | 0.0 | 0.00 | 0.00 | 0.00 | 1000.4 | ||
| 20260831065607 | 0 | 0.0 | 0.0 | 0.00 | 0.00 | 0.00 | 1000.4 | ||
| 20260831064833 | 0 | 0.0 | 0.0 | 0.00 | 0.00 | 0.00 | 1000.5 | ||
| 20260831064333 | 0 | 0.0 | 0.0 | 0.00 | 0.00 | 0.00 | 1000.5 | ||
| 20260831063831 | 0 | 0.0 | 0.0 | 0.00 | 0.00 | 0.00 | 1000.5 | ||
| 20260831063330 | 0 | 0.0 | 0.0 | 0.00 | 0.00 | 0.00 | 1000.5 | ||
| 20260831062830 | 0 | 0.0 | 0.0 | 0.00 | 0.00 | 0.00 | 1000.6 | ||
| 20260831062328 | 0 | 0.0 | 0.0 | 0.00 | 0.00 | 0.00 | 1000.6 | ||
| 20260831061827 | 0 | 0.0 | 0.0 | 0.00 | 0.00 | 0.00 | 1000.6 | ||
| 20260831061325 | 0 | 0.0 | 0.0 | 0.00 | 0.00 | 0.00 | 1000.6 | ||
| 20260831060825 | 0 | 0.0 | 0.0 | 0.00 | 0.00 | 0.00 | 1000.6 | ||
| 20260831060323 | 0 | 0.0 | 0.0 | 0.00 | 0.00 | 0.00 | 1000.6 | ||
| 20260831055822 | 0 | 0.0 | 0.0 | 0.00 | 0.00 | 0.00 | 1000.7 | ||
| 20260831055321 | 0 | 0.0 | 0.0 | 0.00 | 0.00 | 0.00 | 1000.6 | ||
| 20260831054820 | 0 | 0.0 | 0.0 | 0.00 | 0.00 | 0.00 | 1000.6 | ||
| 20260831054318 | 0 | 0.0 | 0.0 | 0.00 | 0.00 | 0.00 | 1000.6 | ||
| 20260831053818 | 0 | 0.0 | 0.0 | 0.00 | 0.00 | 0.00 | 1000.5 | ||
| 20260831053317 | 0 | 0.0 | 0.0 | 0.00 | 0.00 | 0.00 | 1000.5 | ||
| 20260831052815 | 0 | 0.0 | 0.0 | 0.00 | 0.00 | 0.00 | 1000.5 | ||
| 20260831052314 | 0 | 0.0 | 0.0 | 0.00 | 0.00 | 0.00 | 1000.5 | ||
| 20260831051813 | 0 | 0.0 | 0.0 | 0.00 | 0.00 | 0.00 | 1000.4 | ||
| 20260831051312 | 0 | 0.0 | 0.0 | 0.00 | 0.00 | 0.00 | 1000.4 | ||
| 20260831050810 | 0 | 0.0 | 0.0 | 0.00 | 0.00 | 0.00 | 1000.4 | ||
| 20260831050310 | 0 | 0.0 | 0.0 | 0.00 | 0.00 | 0.00 | 1000.3 | ||
| 20260831045808 | 0 | 0.0 | 0.0 | 0.00 | 0.00 | 0.00 | 1000.1 | ||
| 20260831045307 | 0 | 0.0 | 0.0 | 0.00 | 0.00 | 0.00 | 1000.1 | ||
| 20260831044806 | 0 | 0.0 | 0.0 | 0.00 | 0.00 | 0.00 | 1000.1 | ||
| 20260831044536 | 0 | 0.0 | 0.0 | 0.00 | 0.00 | 0.00 | 1000.0 | ||
| 20260831043803 | 0 | 0.0 | 0.0 | 0.00 | 0.00 | 0.00 | 1000.1 | ||
| 20260831043303 | 0 | 0.0 | 0.0 | 0.00 | 0.00 | 0.00 | 1000.0 | ||
| 20260831042802 | 0 | 0.0 | 0.0 | 0.00 | 0.00 | 0.00 | 1000.0 | ||
| 20260831042300 | 0 | 0.0 | 0.0 | 0.00 | 0.00 | 0.00 | 1000.0 | ||
| 20260831042030 | 0 | 0.0 | 0.0 | 0.00 | 0.00 | 0.00 | 1000.0 | ||
| 20260831041258 | 0 | 0.0 | 0.0 | 0.00 | 0.00 | 0.00 | 1000.0 | ||
| 20260831040757 | 0 | 0.0 | 0.0 | 0.00 | 0.00 | 0.00 | 999.9 | ||
| 20260831040256 | 0 | 0.0 | 0.0 | 0.00 | 0.00 | 0.00 | 1000.0 | ||
| 20260831040026 | 0 | 0.0 | 0.0 | 0.00 | 0.00 | 0.00 | 1000.1 | ||
| 20260831035525 | 0 | 0.0 | 0.0 | 0.00 | 0.00 | 0.00 | 999.9 | ||
| 20260831034752 | 0 | 0.0 | 0.0 | 0.00 | 0.00 | 0.00 | 1000.0 | ||
| 20260831034251 | 0 | 0.0 | 0.0 | 0.00 | 0.00 | 0.00 | 999.9 | ||
| 20260831033750 | 0 | 0.0 | 0.0 | 0.00 | 0.00 | 0.00 | 999.8 | ||
| 20260831033249 | 0 | 0.0 | 0.0 | 0.00 | 0.00 | 0.00 | 999.8 | ||
| 20260831032748 | 0 | 0.0 | 0.0 | 0.00 | 0.00 | 0.00 | 999.8 | ||
| 20260831032246 | 0 | 0.0 | 0.0 | 0.00 | 0.00 | 0.00 | 999.8 | ||
| 20260831031746 | 0 | 0.0 | 0.0 | 0.00 | 0.00 | 0.00 | 999.8 | ||
| 20260831031244 | 0 | 0.0 | 0.0 | 0.00 | 0.00 | 0.00 | 999.8 | ||
| 20260831031014 | 0 | 0.0 | 0.0 | 0.00 | 0.00 | 0.00 | 999.8 | ||
| 20260831030242 | 0 | 0.0 | 0.0 | 0.00 | 0.00 | 0.00 | 999.8 | ||
| 20260831025740 | 0 | 0.0 | 0.0 | 0.00 | 0.00 | 0.00 | 999.7 | ||
| 20260831025240 | 0 | 0.0 | 0.0 | 0.00 | 0.00 | 0.00 | 999.8 | ||
| 20260831024739 | 0 | 0.0 | 0.0 | 0.00 | 0.00 | 0.00 | 999.9 | ||
| 20260831024237 | 0 | 0.0 | 0.0 | 0.00 | 0.00 | 0.00 | 999.8 | ||
| 20260831023736 | 0 | 0.0 | 0.0 | 0.00 | 0.00 | 0.00 | 999.9 | ||
| 20260831023235 | 0 | 0.0 | 0.0 | 0.00 | 0.00 | 0.00 | 999.7 | ||
| 20260831022734 | 0 | 0.0 | 0.0 | 0.00 | 0.00 | 0.00 | 999.7 | ||
| 20260831022232 | 0 | 0.0 | 0.0 | 0.00 | 0.00 | 0.00 | 999.7 | ||
| 20260831021732 | 0 | 0.0 | 0.0 | 0.00 | 0.00 | 0.00 | 999.6 | ||
| 20260831021230 | 0 | 0.0 | 0.0 | 0.00 | 0.00 | 0.00 | 999.6 | ||
| 20260831020729 | 0 | 0.0 | 0.0 | 0.00 | 0.00 | 0.00 | 999.6 | ||
| 20260831020228 | 0 | 0.0 | 0.0 | 0.00 | 0.00 | 0.00 | 999.6 | ||
| 20260831015727 | 0 | 0.0 | 0.0 | 0.00 | 0.00 | 0.00 | 999.5 | ||
| 20260831015225 | 0 | 0.0 | 0.0 | 0.00 | 0.00 | 0.00 | 999.4 | ||
| 20260831014725 | 0 | 0.0 | 0.0 | 0.00 | 0.00 | 0.00 | 999.3 | ||
| 20260831014454 | 0 | 0.0 | 0.0 | 0.00 | 0.00 | 0.00 | 999.2 | ||
| 20260831013722 | 0 | 0.0 | 0.0 | 0.00 | 0.00 | 0.00 | 999.1 | ||
| 20260831013221 | 0 | 0.0 | 0.0 | 0.00 | 0.00 | 0.00 | 999.0 | ||
| 20260831012720 | 0 | 0.0 | 0.0 | 0.00 | 0.00 | 0.00 | 999.0 | ||
| 20260831012218 | 0 | 0.0 | 0.0 | 0.00 | 0.00 | 0.00 | 998.9 | ||
| 20260831011718 | 0 | 0.0 | 0.0 | 0.00 | 0.00 | 0.00 | 998.9 | ||
| 20260831011216 | 0 | 0.0 | 0.0 | 0.00 | 0.00 | 0.00 | 998.8 | ||
| 20260831010946 | 0 | 0.0 | 0.0 | 0.00 | 0.00 | 0.00 | 998.8 | ||
| 20260831010214 | 0 | 0.0 | 0.0 | 0.00 | 0.00 | 0.00 | 998.8 | ||
| 20260831005713 | 0 | 0.0 | 0.0 | 0.00 | 0.00 | 0.00 | 998.8 | ||
| 20260831005212 | 0 | 0.0 | 0.0 | 0.00 | 0.00 | 0.00 | 998.8 | ||
| 20260831004711 | 0 | 0.0 | 0.0 | 0.00 | 0.00 | 0.00 | 998.6 | ||
| 20260831004210 | 0 | 0.0 | 0.0 | 0.00 | 0.00 | 0.00 | 998.7 | ||
| 20260831003708 | 90 | 195 | 2.0 | 3.0 | 0.00 | 0.00 | 0.00 | 44 | 998.6 |
| 20260831002707 | 90 | 223 | 2.0 | 5.0 | 0.00 | 0.00 | 0.00 | 44 | 998.7 |
| 20260831002207 | 91 | 244 | 4.0 | 7.0 | 0.00 | 0.00 | 0.00 | 43 | 998.6 |
| 20260831001707 | 91 | 212 | 4.0 | 7.0 | 0.00 | 0.00 | 0.00 | 43 | 998.6 |
| 20260831001207 | 91 | 216 | 4.0 | 7.0 | 0.00 | 0.00 | 0.00 | 43 | 998.6 |
| 20260831000707 | 91 | 233 | 2.0 | 7.0 | 0.00 | 0.00 | 0.00 | 43 | 998.6 |
| 20260831000207 | 92 | 219 | 4.0 | 11.0 | 0.00 | 0.00 | 0.00 | 43 | 998.5 |
| 20260830235707 | 92 | 262 | 6.0 | 11.0 | 0.00 | 0.00 | 0.00 | 42 | 998.5 |
| 20260830235207 | 92 | 224 | 4.0 | 7.0 | 0.00 | 0.00 | 0.00 | 42 | 998.5 |
| 20260830234706 | 92 | 250 | 5.0 | 12.0 | 0.00 | 0.00 | 0.00 | 42 | 998.5 |
| 20260830234205 | 93 | 221 | 5.0 | 12.0 | 0.00 | 0.00 | 0.00 | 42 | 998.5 |
| 20260830233706 | 93 | 255 | 5.0 | 11.0 | 0.00 | 0.00 | 0.00 | 42 | 998.6 |
| 20260830233205 | 93 | 233 | 5.0 | 11.0 | 0.00 | 0.00 | 0.00 | 41 | 998.6 |
| 20260830232706 | 93 | 261 | 5.0 | 15.0 | 0.00 | 0.00 | 0.00 | 42 | 998.6 |
| 20260830232205 | 94 | 245 | 8.0 | 15.0 | 0.00 | 0.00 | 0.00 | 41 | 998.6 |
| 20260830231705 | 94 | 210 | 7.0 | 13.0 | 0.00 | 0.00 | 0.00 | 41 | 998.6 |
| 20260830231205 | 94 | 234 | 7.0 | 13.0 | 0.00 | 0.00 | 0.00 | 41 | 998.6 |
| 20260830230937 | 94 | 275 | 8.0 | 12.0 | 0.00 | 0.00 | 0.00 | 41 | 998.5 |
| 20260830230204 | 94 | 243 | 5.0 | 12.0 | 0.00 | 0.00 | 0.00 | 41 | 998.5 |
| 20260830225705 | 94 | 255 | 8.0 | 12.0 | 0.00 | 0.00 | 0.00 | 41 | 998.5 |
| 20260830225438 | 95 | 224 | 8.0 | 11.0 | 0.00 | 0.00 | 0.00 | 41 | 998.5 |
| 20260830224705 | 95 | 214 | 6.0 | 12.0 | 0.00 | 0.00 | 0.00 | 41 | 998.4 |
| 20260830224206 | 95 | 248 | 6.0 | 12.0 | 0.00 | 0.00 | 0.00 | 41 | 998.4 |
| 20260830223705 | 95 | 255 | 6.0 | 12.0 | 0.00 | 0.00 | 0.00 | 41 | 998.4 |
| 20260830223204 | 95 | 219 | 7.0 | 12.0 | 0.00 | 0.00 | 0.00 | 41 | 998.4 |
| 20260830222703 | 95 | 203 | 6.0 | 12.0 | 0.00 | 0.00 | 0.00 | 41 | 998.4 |
| 20260830222203 | 95 | 244 | 6.0 | 12.0 | 0.00 | 0.00 | 0.00 | 41 | 998.5 |
| 20260830221934 | 96 | 247 | 6.0 | 12.0 | 0.00 | 0.00 | 0.00 | 41 | 998.4 |
| 20260830221203 | 96 | 258 | 6.0 | 13.0 | 0.00 | 0.00 | 0.00 | 40 | 998.5 |
| 20260830220704 | 96 | 219 | 8.0 | 13.0 | 0.00 | 0.00 | 0.00 | 40 | 998.4 |
| 20260830220435 | 96 | 207 | 5.0 | 14.0 | 0.00 | 0.00 | 0.00 | 40 | 998.4 |
| 20260830215935 | 96 | 245 | 5.0 | 14.0 | 0.00 | 0.00 | 0.00 | 40 | 998.4 |
| 20260830214704 | 97 | 210 | 5.0 | 12.0 | 0.00 | 0.00 | 0.00 | 38 | 998.5 |
| 20260830214203 | 97 | 219 | 4.0 | 11.0 | 0.00 | 0.00 | 0.00 | 37 | 998.5 |
| 20260830213703 | 97 | 226 | 6.0 | 10.0 | 0.00 | 0.00 | 0.00 | 36 | 998.5 |
| 20260830213204 | 97 | 252 | 4.0 | 10.0 | 0.00 | 0.00 | 0.00 | 35 | 998.5 |
| 20260830212702 | 97 | 206 | 5.0 | 10.0 | 0.00 | 0.00 | 0.00 | 35 | 998.5 |
| 20260830212434 | 97 | 240 | 4.0 | 11.0 | 0.00 | 0.00 | 0.00 | 34 | 998.5 |
| 20260830211934 | 97 | 223 | 7.0 | 11.0 | 0.00 | 0.00 | 0.00 | 33 | 998.5 |
| 20260830211202 | 98 | 247 | 3.0 | 11.0 | 0.00 | 0.00 | 0.00 | 34 | 998.5 |
| 20260830210702 | 98 | 230 | 6.0 | 10.0 | 0.00 | 0.00 | 0.00 | 33 | 998.5 |
| 20260830210202 | 98 | 171 | 6.0 | 10.0 | 0.00 | 0.00 | 0.00 | 33 | 998.6 |
| 20260830205703 | 98 | 258 | 4.0 | 10.0 | 0.00 | 0.00 | 0.00 | 34 | 998.6 |
| 20260830205202 | 98 | 116 | 3.0 | 10.0 | 0.00 | 0.00 | 0.00 | 34 | 998.6 |
| 20260830204702 | 97 | 250 | 4.0 | 11.0 | 0.00 | 0.00 | 0.00 | 34 | 998.6 |
| 20260830204202 | 97 | 221 | 7.0 | 11.0 | 0.00 | 0.00 | 0.00 | 35 | 998.6 |
| 20260830203701 | 98 | 250 | 5.0 | 11.0 | 0.00 | 0.00 | 0.00 | 34 | 998.8 |
| 20260830203201 | 98 | 176 | 4.0 | 11.0 | 0.00 | 0.00 | 0.00 | 35 | 998.8 |
| 20260830202701 | 98 | 206 | 5.0 | 11.0 | 0.00 | 0.00 | 0.00 | 36 | 998.8 |
| 20260830202201 | 98 | 261 | 4.0 | 12.0 | 0.00 | 0.00 | 0.00 | 36 | 998.8 |
| 20260830201701 | 98 | 240 | 6.0 | 12.0 | 0.00 | 0.00 | 0.00 | 36 | 998.8 |
| 20260830201430 | 98 | 265 | 6.0 | 10.0 | 0.00 | 0.00 | 0.00 | 36 | 998.9 |
| 20260830200700 | 0 | 0.0 | 0.0 | 0.00 | 0.00 | 0.00 | 998.9 | ||
| 20260830200430 | 97 | 203 | 5.0 | 10.0 | 0.00 | 0.00 | 0.00 | 38 | 999.0 |
| 20260830195658 | 97 | 203 | 5.0 | 10.0 | 0.00 | 0.00 | 0.00 | 38 | 999.1 |
| 20260830195158 | 97 | 82 | 4.0 | 10.0 | 0.00 | 0.00 | 0.00 | 38 | 999.0 |
| 20260830194932 | 97 | 247 | 5.0 | 10.0 | 0.00 | 0.00 | 0.00 | 37 | 999.1 |
| 20260830194432 | 0 | 0.0 | 0.0 | 0.00 | 0.00 | 0.00 | 999.1 | ||
| 20260830193658 | 0 | 0.0 | 0.0 | 0.00 | 0.00 | 0.00 | 999.2 | ||
| 20260830193156 | 0 | 0.0 | 0.0 | 0.00 | 0.00 | 0.00 | 999.3 | ||
| 20260830192656 | 0 | 0.0 | 0.0 | 0.00 | 0.00 | 0.00 | 999.4 | ||
| 20260830192154 | 0 | 0.0 | 0.0 | 0.00 | 0.00 | 0.00 | 999.4 | ||
| 20260830191653 | 0 | 0.0 | 0.0 | 0.00 | 0.00 | 0.00 | 999.3 | ||
| 20260830191152 | 0 | 0.0 | 0.0 | 0.00 | 0.00 | 0.00 | 999.5 | ||
| 20260830190651 | 0 | 0.0 | 0.0 | 0.00 | 0.00 | 0.00 | 999.5 | ||
| 20260830190150 | 0 | 0.0 | 0.0 | 0.00 | 0.00 | 0.00 | 999.4 | ||
| 20260830185649 | 0 | 0.0 | 0.0 | 0.00 | 0.00 | 0.00 | 999.6 | ||
| 20260830185147 | 0 | 0.0 | 0.0 | 0.00 | 0.00 | 0.00 | 999.6 | ||
| 20260830184647 | 0 | 0.0 | 0.0 | 0.00 | 0.00 | 0.00 | 999.8 | ||
| 20260830184145 | 0 | 0.0 | 0.0 | 0.00 | 0.00 | 0.00 | 999.9 | ||
| 20260830183646 | 0 | 0.0 | 0.0 | 0.00 | 0.00 | 0.00 | 999.9 | ||
| 20260830183413 | 0 | 0.0 | 0.0 | 0.00 | 0.00 | 0.00 | 1000.0 | ||
| 20260830182642 | 0 | 0.0 | 0.0 | 0.00 | 0.00 | 0.00 | 1000.0 | ||
| 20260830182140 | 0 | 0.0 | 0.0 | 0.00 | 0.00 | 0.00 | 1000.2 | ||
| 20260830181640 | 0 | 0.0 | 0.0 | 0.00 | 0.00 | 0.00 | 1000.3 | ||
| 20260830181138 | 0 | 0.0 | 0.0 | 0.00 | 0.00 | 0.00 | 1000.2 | ||
| 20260830180637 | 0 | 0.0 | 0.0 | 0.00 | 0.00 | 0.00 | 1000.3 | ||
| 20260830180135 | 0 | 0.0 | 0.0 | 0.00 | 0.00 | 0.00 | 1000.4 | ||
| 20260830175635 | 0 | 0.0 | 0.0 | 0.00 | 0.00 | 0.00 | 1000.6 | ||
| 20260830175133 | 0 | 0.0 | 0.0 | 0.00 | 0.00 | 0.00 | 1000.5 | ||
| 20260830174634 | 0 | 0.0 | 0.0 | 0.00 | 0.00 | 0.00 | 1000.5 | ||
| 20260830174401 | 0 | 0.0 | 0.0 | 0.00 | 0.00 | 0.00 | 1000.7 | ||
| 20260830173630 | 0 | 0.0 | 0.0 | 0.00 | 0.00 | 0.00 | 1000.8 | ||
| 20260830173128 | 0 | 0.0 | 0.0 | 0.00 | 0.00 | 0.00 | 1000.8 |